sat.trackr.live / text

‹ back to catalog

STARLINK-34390

NORAD 64666 · 2025-139C

PAYLOAD ACTIVE UNKNOWN

§ Identity

Operator
Country
US
Launch date
2025-06-28
Launch site
AFETR
Launch vehicle
Mass (kg)
RCS (m²)

Purposes: comms

External: N2YO · Heavens-Above · Gunter

§ Orbital elements

Epoch: 2026-05-25T03:10:46.873344Z

Period
93.85 min
Inclination
53.1586°
Eccentricity
0.0001588
Mean motion
15.34424069 rev/d
Perigee alt
461.5 km
Apogee alt
463.7 km
Semi-major
6,840.8 km
B*
5.9464e-4
RAAN
130.8535°
Arg perigee
105.8806°
Mean anomaly
254.2372°
Rev number
5,206

§ Raw data

STARLINK-343901 64666U 25139C   26145.13248696  .00019783  00000+0  59464-3 0  99932 64666  53.1586 130.8535 0001588 105.8806 254.2372 15.34424069 52069

JSON: /api/v1/satellites/64666 · /tle

For live sub-satellite position, see the globe view (requires WebGL).

§ Visibility from observer

Set your observer location to see the next 7 days of passes ≥ 10°. The values pass through the URL so the page stays shareable.

No JS? Fill the form by hand. The geolocation button needs JavaScript.